Flag for Canada Weather past 2 weeks in Pond Inlet, Nunavut Territory, Canada

Now
10 °F

Partly sunny.


Feels Like: -6 °F
Forecast: -12 / 1 °F
Wind: 15 mph from Southwest

Location: Pond Inlet


UV Index: 0 (Low)

Visibility: 20 mi


Pressure: 29.63 "Hg

Humidity: 72%

Dew point: 3 °F

Location of Pond InletLocation

Historic Weather in Pond Inlet

°F

Pond Inlet temperature yesterday

Maximum temperature yesterday: 12 °F (at 5:00 PM)
Minimum temperature yesterday: -8 °F (at 5:00 AM)
Average temperature yesterday: 3 °F

Past Weeks' High & Low Weather Summary

 TemperatureHumidityPressure
High12 °F (Apr 10, 3:00 PM)85% (Apr 18, 1:00 AM)30.19 "Hg (Apr 18, 1:00 AM)
Low-22 °F (Apr 6, 3:00 AM)40% (Apr 10, 6:00 PM)29.37 "Hg (Apr 17, 3:00 PM)
Average-6 °F71%29.84 "Hg
* Reported Apr 3 11:00 AM — Apr 18 11:00 AM, Pond Inlet, Weather by CustomWeather, © 2014

Note: Actual official high and low records may vary slightly from our data, if they occured in-between our weather recording intervals... More about our weather records

Advertising

Historic Weather Conditions — Data for Previous 24 hours

 ConditionsComfort  
Time TempWeatherWind HumidityBarometerVisibility
11:00 AM
Apr 18
10 °FPartly sunny.15 mph72%29.62 "Hg20 mi
10:00 AM10 °FSunny.18 mph72%29.61 "Hg9 mi
9:00 AM10 °FSunny.15 mph67%29.60 "Hg9 mi
8:00 AM7 °FSunny.16 mph72%29.60 "Hg9 mi
7:00 AM7 °FPassing clouds.18 mph72%29.58 "Hg9 mi
6:00 AM7 °FPassing clouds.18 mph72%29.56 "Hg9 mi
5:00 AM7 °FSunny.20 mph72%29.54 "Hg9 mi
4:00 AM7 °FPassing clouds.23 mph72%29.53 "Hg9 mi
3:00 AM7 °FClear.21 mph78%29.52 "Hg9 mi
2:00 AM7 °FClear.23 mph78%29.49 "Hg9 mi
1:00 AM7 °FPassing clouds.20 mph85%29.47 "Hg9 mi
12:00 AM7 °FPassing clouds.17 mph78%29.46 "Hg9 mi
11:00 PM
Apr 17
9 °FClear.24 mph78%29.43 "Hg9 mi
10:00 PM10 °FClear.23 mph79%29.42 "Hg9 mi
9:00 PM10 °FClear.16 mph79%29.43 "Hg9 mi
8:00 PM10 °FSunny.10 mph79%29.41 "Hg9 mi
7:00 PM10 °FPassing clouds.15 mph79%29.39 "Hg25 mi
6:00 PM10 °FPassing clouds.16 mph72%29.38 "Hg25 mi
5:00 PM12 °FPassing clouds.16 mph79%29.37 "Hg25 mi
4:00 PM10 °FPassing clouds.15 mph72%29.37 "Hg25 mi
3:00 PM10 °FPassing clouds.18 mph72%29.37 "Hg25 mi
2:00 PM9 °FPassing clouds.20 mph72%29.37 "Hg25 mi
1:00 PM9 °FPassing clouds.17 mph66%29.38 "Hg25 mi
12:00 PM7 °FPassing clouds.16 mph72%29.40 "Hg25 mi
Weather by CustomWeather, © 2014

See weather overview